User: anonymous   Login
Location: Hains Lake
(37.8540°N, 99.8578°W)
Time: 08:29:00
(UTC+00:00)
Language:

deb Explorer IX - Orbit

View from above orbital plane
View from above orbital plane
View from above satellite
View from above satellite

Ground track
Ground track

The orbit data is extracted from the following two-line orbital elements,

1 00085U 61004C   21109.46583824  .00000021  00000-0  27113-4 0  9998
2 00085  38.7762 258.5351 0387992  19.6690 341.8575 14.21637140974648
Epoch (UTC): 19 April 2021 11:10:48
Eccentricity: 0.0387992
inclination: 38.7762°
perigee height: 540 km
apogee height: 1099 km
right ascension of ascending node: 258.5351°
argument of perigee: 19.6690°
revolutions per day: 14.21637140
mean anomaly at epoch: 341.8575°
orbit number at epoch: 97464

The dashed part of the orbit path shows where the satellite is in the earth's shadow,  

DLR